{"data":{"norad_id":57698,"intl_designator":"2023-129A","name":"STARLINK-30288","alt_names":[],"object_type":"PAYLOAD","status":"ACTIVE","operator":null,"country":"US","launch_date":"2023-08-27","launch_site_code":"AFETR","launch_vehicle":null,"mission":null,"orbit_class":"UNKNOWN","rcs_meters":null,"size_class":null,"mass_kg":null,"dimensions":null,"purposes":["comms"],"wikipedia_slug":null,"has_3d_model":false,"image_url":null,"decayed_at":null,"tle_current":{"epoch":"2026-09-20T20:07:56.473248Z","epoch_age_seconds":102113,"freshness":"FRESH","line1":"1 57698U 23129A   26263.83884807 -.00000150  00000+0  40835-5 0  9998","line2":"2 57698  43.0013  96.1840 0001244 267.4072  92.6637 15.27575726170520","mean_motion":15.27575726,"eccentricity":0.0001244,"inclination_deg":43.0013,"raan_deg":96.184,"arg_perigee_deg":267.4072,"mean_anomaly_deg":92.6637,"bstar":4.0835e-6,"rev_number":17052,"period_min":94.267012462333,"perigee_km":482.20836082065,"apogee_km":483.91542710546,"semimajor_km":6861.1988939631,"source":"CELESTRAK","updated_at":"2026-09-21T09:00:33.673760Z"}}}